Location: Ferchesar
(52.6477°N, 12.4298°E)
Time: 05:36:03
(UTC+02:00)

Transit 4A - Pass Details

Date: 04 March 2021
Orbit: 869 x 976 km, 66.8° (Epoch: 12 April)

Event Time Altitude Azimuth Distance (km) Brightness Sun altitude
Rises 17:44:39 0° 319° (NW) 3,605 11.4 0.7°
Reaches altitude 10° 17:47:17 10° 323° (NW) 2,642 10.7 0.3°
Maximum altitude 17:53:20 59° 43° (NE) 1,043 8.0 -0.6°
Drops below altitude 10° 17:59:12 10° 123° (ESE) 2,557 9.8 -1.5°
Sets 18:01:42 0° 128° (SE) 3,481 10.5 -1.8°
